• In Deutschland
  • Länderverzeichnis
  • Für 7 Tage
  • Wassertemperatur
  • Satellitenkarten
  • Wetterkarte
  • Widgets
  • user-avatar
    Anmelden

    Stündliche Wetter Aran

    Heute, 22 Oktober, Montag

    Zeit Temperatur Niederschläge Wind Luftdruck Luftfeuchtigkeit
    00:00 +21°C° 0 mm 2 m/S 757 mmHg 56%
    01:00 +21°C° 0 mm 1 m/S 757 mmHg 58%
    02:00 +21°C° 0 mm 1 m/S 757 mmHg 61%
    03:00 +21°C° 0 mm 1 m/S 757 mmHg 65%
    04:00 +19°C° 0.1 mm 0 m/S 757 mmHg 66%
    05:00 +18°C° 0.1 mm 0 m/S 757 mmHg 68%
    06:00 +18°C° 0.1 mm 0 m/S 757 mmHg 69%
    07:00 +21°C° 0 mm 1 m/S 758 mmHg 67%
    08:00 +22°C° 0 mm 1 m/S 758 mmHg 65%
    09:00 +23°C° 0 mm 1 m/S 758 mmHg 61%
    10:00 +23°C° 0 mm 2 m/S 757 mmHg 57%
    11:00 +24°C° 0 mm 2 m/S 757 mmHg 54%
    12:00 +25°C° 0 mm 3 m/S 757 mmHg 50%
    13:00 +25°C° 0 mm 3 m/S 757 mmHg 48%
    14:00 +25°C° 0 mm 3 m/S 757 mmHg 46%
    15:00 +25°C° 0 mm 3 m/S 757 mmHg 43%
    16:00 +24°C° 0 mm 3 m/S 757 mmHg 45%
    17:00 +22°C° 0 mm 3 m/S 757 mmHg 48%
    18:00 +21°C° 0 mm 3 m/S 758 mmHg 51%
    19:00 +21°C° 0 mm 3 m/S 758 mmHg 51%
    20:00 +21°C° 0 mm 3 m/S 758 mmHg 52%
    21:00 +20°C° 0 mm 3 m/S 758 mmHg 53%
    22:00 +20°C° 0 mm 3 m/S 758 mmHg 54%
    23:00 +20°C° 0 mm 3 m/S 758 mmHg 54%

    Morgen, 23 Oktober, Dienstag

    Zeit Temperatur Niederschläge Wind Luftdruck Luftfeuchtigkeit
    00:00 +19°C° 0 mm 3 m/S 758 mmHg 55%
    01:00 +19°C° 0 mm 3 m/S 758 mmHg 55%
    02:00 +19°C° 0 mm 3 m/S 758 mmHg 56%
    03:00 +19°C° 0 mm 3 m/S 758 mmHg 56%
    04:00 +18°C° 0 mm 3 m/S 758 mmHg 56%
    05:00 +18°C° 0 mm 3 m/S 758 mmHg 57%
    06:00 +18°C° 0 mm 3 m/S 758 mmHg 57%
    07:00 +19°C° 0 mm 3 m/S 758 mmHg 53%
    08:00 +21°C° 0 mm 3 m/S 758 mmHg 48%
    09:00 +22°C° 0 mm 4 m/S 758 mmHg 43%
    10:00 +23°C° 0 mm 4 m/S 758 mmHg 40%
    11:00 +25°C° 0 mm 4 m/S 758 mmHg 37%
    12:00 +26°C° 0 mm 4 m/S 757 mmHg 34%
    13:00 +27°C° 0 mm 4 m/S 757 mmHg 34%
    14:00 +27°C° 0 mm 3 m/S 757 mmHg 33%
    15:00 +27°C° 0 mm 3 m/S 756 mmHg 32%
    16:00 +26°C° 0 mm 2 m/S 757 mmHg 35%
    17:00 +24°C° 0 mm 2 m/S 757 mmHg 38%
    18:00 +23°C° 0 mm 1 m/S 757 mmHg 41%
    19:00 +22°C° 0 mm 1 m/S 757 mmHg 41%
    20:00 +22°C° 0 mm 1 m/S 757 mmHg 41%
    21:00 +21°C° 0 mm 1 m/S 757 mmHg 41%
    22:00 +21°C° 0 mm 1 m/S 757 mmHg 41%
    23:00 +20°C° 0 mm 1 m/S 757 mmHg 41%

    übermorgen, 24 Oktober, Mittwoch

    Zeit Temperatur Niederschläge Wind Luftdruck Luftfeuchtigkeit
    00:00 +20°C° 0 mm 1 m/S 757 mmHg 40%
    01:00 +20°C° 0 mm 1 m/S 756 mmHg 41%
    02:00 +19°C° 0 mm 1 m/S 756 mmHg 42%
    03:00 +19°C° 0 mm 1 m/S 756 mmHg 42%
    04:00 +19°C° 0 mm 1 m/S 756 mmHg 43%
    05:00 +17°C° 0 mm 2 m/S 755 mmHg 43%
    06:00 +17°C° 0 mm 2 m/S 755 mmHg 44%
    07:00 +19°C° 0 mm 2 m/S 755 mmHg 40%
    08:00 +20°C° 0 mm 2 m/S 755 mmHg 37%
    09:00 +23°C° 0 mm 2 m/S 755 mmHg 33%
    10:00 +24°C° 0 mm 3 m/S 754 mmHg 31%
    11:00 +25°C° 0 mm 3 m/S 753 mmHg 30%
    12:00 +26°C° 0 mm 3 m/S 753 mmHg 28%
    13:00 +26°C° 0 mm 3 m/S 752 mmHg 28%
    14:00 +27°C° 0 mm 3 m/S 751 mmHg 28%
    15:00 +27°C° 0 mm 3 m/S 751 mmHg 28%
    16:00 +26°C° 0 mm 2 m/S 751 mmHg 31%
    17:00 +24°C° 0 mm 2 m/S 751 mmHg 33%
    18:00 +23°C° 0 mm 2 m/S 751 mmHg 36%
    19:00 +23°C° 0 mm 2 m/S 750 mmHg 37%
    20:00 +22°C° 0 mm 1 m/S 750 mmHg 38%
    21:00 +22°C° 0 mm 1 m/S 750 mmHg 38%
    22:00 +21°C° 0 mm 2 m/S 750 mmHg 39%
    23:00 +20°C° 0 mm 2 m/S 750 mmHg 40%

    25 Oktober, Donnerstag

    Zeit Temperatur Niederschläge Wind Luftdruck Luftfeuchtigkeit
    00:00 +20°C° 0 mm 2 m/S 749 mmHg 40%
    01:00 +20°C° 0 mm 2 m/S 749 mmHg 41%
    02:00 +20°C° 0 mm 3 m/S 748 mmHg 41%
    03:00 +20°C° 0 mm 3 m/S 748 mmHg 42%
    04:00 +19°C° 0 mm 3 m/S 748 mmHg 44%
    05:00 +19°C° 0 mm 4 m/S 748 mmHg 46%
    06:00 +19°C° 0 mm 4 m/S 747 mmHg 48%
    07:00 +21°C° 0 mm 4 m/S 747 mmHg 44%
    08:00 +22°C° 0 mm 4 m/S 747 mmHg 40%
    09:00 +25°C° 0 mm 5 m/S 747 mmHg 36%
    10:00 +26°C° 0 mm 5 m/S 746 mmHg 33%
    11:00 +27°C° 0 mm 5 m/S 745 mmHg 31%
    12:00 +29°C° 0 mm 5 m/S 745 mmHg 28%
    13:00 +29°C° 0 mm 4 m/S 744 mmHg 28%
    14:00 +29°C° 0 mm 4 m/S 744 mmHg 27%
    15:00 +29°C° 0 mm 3 m/S 743 mmHg 27%
    16:00 +28°C° 0 mm 2 m/S 743 mmHg 29%
    17:00 +27°C° 0 mm 2 m/S 743 mmHg 32%
    18:00 +25°C° 0 mm 2 m/S 743 mmHg 35%
    19:00 +25°C° 0.1 mm 2 m/S 744 mmHg 37%
    20:00 +24°C° 0.1 mm 3 m/S 745 mmHg 39%
    21:00 +24°C° 0.1 mm 3 m/S 745 mmHg 41%
    22:00 +22°C° 0 mm 3 m/S 746 mmHg 43%
    23:00 +21°C° 0 mm 3 m/S 746 mmHg 46%

    26 Oktober, Freitag

    Zeit Temperatur Niederschläge Wind Luftdruck Luftfeuchtigkeit
    00:00 +20°C° 0 mm 3 m/S 746 mmHg 49%
    01:00 +20°C° 0 mm 3 m/S 746 mmHg 51%
    02:00 +19°C° 0 mm 3 m/S 747 mmHg 52%
    03:00 +18°C° 0 mm 3 m/S 747 mmHg 54%
    04:00 +17°C° 0 mm 4 m/S 747 mmHg 55%
    05:00 +15°C° 0 mm 4 m/S 748 mmHg 56%
    06:00 +15°C° 0 mm 4 m/S 748 mmHg 56%
    07:00 +15°C° 0 mm 5 m/S 749 mmHg 55%
    08:00 +15°C° 0 mm 5 m/S 749 mmHg 54%
    09:00 +15°C° 0 mm 6 m/S 750 mmHg 53%
    10:00 +15°C° 0.5 mm 6 m/S 750 mmHg 58%
    11:00 +14°C° 0.5 mm 6 m/S 750 mmHg 62%
    12:00 +12°C° 0.5 mm 7 m/S 750 mmHg 67%
    13:00 +13°C° 2 mm 6 m/S 751 mmHg 68%
    14:00 +13°C° 2 mm 6 m/S 751 mmHg 70%
    15:00 +13°C° 2 mm 6 m/S 752 mmHg 72%
    16:00 +13°C° 0.7 mm 5 m/S 753 mmHg 69%
    17:00 +14°C° 0.7 mm 5 m/S 754 mmHg 66%
    18:00 +14°C° 0.7 mm 4 m/S 755 mmHg 63%
    19:00 +14°C° 0 mm 4 m/S 755 mmHg 62%
    20:00 +14°C° 0 mm 4 m/S 756 mmHg 60%
    21:00 +14°C° 0 mm 4 m/S 757 mmHg 59%
    22:00 +13°C° 0 mm 4 m/S 757 mmHg 57%
    23:00 +13°C° 0 mm 5 m/S 758 mmHg 56%

    27 Oktober, Samstag

    Zeit Temperatur Niederschläge Wind Luftdruck Luftfeuchtigkeit
    00:00 +12°C° 0 mm 5 m/S 758 mmHg 54%
    01:00 +12°C° 0 mm 5 m/S 759 mmHg 53%
    02:00 +12°C° 0 mm 5 m/S 759 mmHg 53%
    03:00 +12°C° 0 mm 5 m/S 760 mmHg 52%
    04:00 +10°C° 0 mm 6 m/S 760 mmHg 51%
    05:00 +10°C° 0 mm 6 m/S 761 mmHg 49%
    06:00 +10°C° 0 mm 6 m/S 762 mmHg 48%
    07:00 +13°C° 0 mm 6 m/S 763 mmHg 45%
    08:00 +14°C° 0 mm 6 m/S 763 mmHg 42%
    09:00 +15°C° 0 mm 6 m/S 764 mmHg 40%
    10:00 +16°C° 0 mm 6 m/S 764 mmHg 38%
    11:00 +17°C° 0 mm 6 m/S 764 mmHg 36%
    12:00 +19°C° 0 mm 6 m/S 764 mmHg 34%
    13:00 +20°C° 0 mm 5 m/S 764 mmHg 33%
    14:00 +20°C° 0 mm 5 m/S 764 mmHg 33%
    15:00 +20°C° 0 mm 4 m/S 764 mmHg 32%
    16:00 +19°C° 0 mm 3 m/S 765 mmHg 35%
    17:00 +18°C° 0 mm 2 m/S 766 mmHg 39%
    18:00 +16°C° 0 mm 1 m/S 767 mmHg 42%
    19:00 +16°C° 0 mm 2 m/S 767 mmHg 43%
    20:00 +16°C° 0 mm 2 m/S 768 mmHg 45%
    21:00 +15°C° 0 mm 2 m/S 768 mmHg 46%
    22:00 +15°C° 0 mm 2 m/S 768 mmHg 49%
    23:00 +14°C° 0 mm 2 m/S 769 mmHg 52%

    28 Oktober, Sonntag

    Zeit Temperatur Niederschläge Wind Luftdruck Luftfeuchtigkeit
    00:00 +13°C° 0 mm 2 m/S 769 mmHg 56%
    01:00 +13°C° 0 mm 2 m/S 769 mmHg 58%
    02:00 +13°C° 0 mm 2 m/S 769 mmHg 60%
    03:00 +12°C° 0 mm 1 m/S 769 mmHg 62%
    04:00 +12°C° 0 mm 1 m/S 769 mmHg 63%
    05:00 +12°C° 0 mm 1 m/S 769 mmHg 63%
    06:00 +12°C° 0 mm 1 m/S 769 mmHg 63%
    07:00 +13°C° 0 mm 1 m/S 769 mmHg 60%
    08:00 +14°C° 0 mm 1 m/S 769 mmHg 57%
    09:00 +16°C° 0 mm 1 m/S 769 mmHg 54%
    10:00 +16°C° 0 mm 1 m/S 768 mmHg 52%
    11:00 +18°C° 0 mm 1 m/S 768 mmHg 50%
    12:00 +19°C° 0 mm 1 m/S 768 mmHg 48%
    13:00 +20°C° 0 mm 1 m/S 767 mmHg 47%
    14:00 +20°C° 0 mm 1 m/S 767 mmHg 46%
    15:00 +20°C° 0 mm 1 m/S 767 mmHg 45%
    16:00 +19°C° 0 mm 1 m/S 767 mmHg 50%
    17:00 +18°C° 0 mm 1 m/S 767 mmHg 54%
    18:00 +16°C° 0 mm 1 m/S 767 mmHg 58%
    19:00 +16°C° 0 mm 1 m/S 768 mmHg 60%
    20:00 +15°C° 0 mm 1 m/S 768 mmHg 62%
    21:00 +15°C° 0 mm 2 m/S 768 mmHg 65%
    22:00 +15°C° 0 mm 1 m/S 768 mmHg 66%
    23:00 +14°C° 0 mm 1 m/S 767 mmHg 67%
    Mehr zeigen